Regional Weather Roundup
Issued by NWS Newport/Morehead, NC

Current Version | Previous Version | Graphics & Text | Print | Product List | Glossary Off
Versions: 1 2 3 4 5 6 7 8 9 10 11 12 13 14 15 16 17 18 19 20 21 22 23 24 25 26 27 28 29 30 31 32 33 34 35 36 37 38 39 40 41 42 43 44 45 46 47 48 49 50

000
ASUS42 KMHX 221925
RWRMHX
WEATHER ROUNDUP FOR EASTERN NORTH CAROLINA
NATIONAL WEATHER SERVICE NEWPORT/MOREHEAD CITY NC
200 PM EST SUN JAN 22 2017

NOTE: "FAIR" INDICATES FEW OR NO CLOUDS BELOW 12,000 FEET
WITH NO SIGNIFICANT WEATHER AND/OR OBSTRUCTIONS TO VISIBILITY

NCZ015>017-031-032-045>047-102-103-222000-
NORTH COAST

CITY           SKY/WX    TMP DP  RH WIND       PRES   REMARKS
EDENTON        CLOUDY    57  55  93 SE3       29.57R FOG
ELIZABETH CITY CLOUDY    55  54  96 E5        29.52F
KITTY HAWK     NOT AVBL
MANTEO         CLOUDY    56  56 100 SE6       29.52F FOG

$$

NCZ045>047-081-094-103-104-222000-
CENTRAL COAST

CITY           SKY/WX    TMP DP  RH WIND       PRES   REMARKS
FRISCO         CLOUDY    61  59  93 CALM      29.55R FOG

$$

NCZ095-097-098-100-101-222000-
SOUTHERN COAST

CITY           SKY/WX    TMP DP  RH WIND       PRES   REMARKS
BEAUFORT       MOSUNNY   62  60  93 S6        29.52F
CEDAR ISLAND   NOT AVBL
JACKSONVILLE   CLOUDY    63  60  90 CALM      29.53F
PINEY ISLAND   CLOUDY   N/A N/A N/A S6        29.54R
WILMINGTON     CLOUDY    62  60  93 SE7       29.48F


$$

NCZ011>013-027>030-043-044-078>080-089-090>093-098-222000-
COASTAL PLAIN

CITY           SKY/WX    TMP DP  RH WIND       PRES   REMARKS
AHOSKIE        DRIZZLE   52  52  99 CALM      29.58R
CLINTON        CLOUDY    65  59  83 CALM      29.52F
ELIZABETHTOWN  CLOUDY    64  60  87 CALM      29.52F
GOLDSBORO      PTSUNNY   59  59 100 N6        29.53S
GREENVILLE     CLOUDY    59  57  94 CALM      29.60R FOG
HAVELOCK       CLOUDY    61  59  93 CALM      29.55F
KENANSVILLE    PTSUNNY   64  59  82 CALM      29.53F
KINSTON        CLOUDY    61  59  94 NW6       29.56R
NEW BERN       CLOUDY    63  59  87 S5        29.56S
RICHLANDS      CLOUDY    62  59  90 CALM      29.53F
ROCKY MOUNT    CLOUDY    55  54  96 CALM      29.57S
WASHINGTON     CLOUDY    61  57  87 CALM        N/A
WHITEVILLE     CLOUDY    64  60  87 S3        29.50F

$$

AMZ130-135-150-152-154-156-158-170-250-252-270-ANZ085-086-088-633-658-670-222000-
MARINE OBSERVATIONS

STATION/POSITION TIME  TEMP    WIND        PRES    WAVE   SWELL
                       AIR SEA DIR/SP/G            HT/PER HT/PER
                 (UTC) (F)     (DEG/KT/KT) (MB)    (FT/S) (FT/S)
CHESAPEAKE LIGHT NOT AVBL
64 E VA BEACH    1850   51 56  280/ 10/ 12  999.3    5/ 7   5/ 7
DUCK             1900   49 46   50/  9/  9  998.9
2 E DUCK         1900      47                N/A     3/12   2/12
OREGON INLET     1900   53 50  170/  4/  5  999.5
13E OREGON INLT  NOT AVBL
HATTERAS CG      1900   60 54  210/  3/  5 1000.9
DIAMOND BUOY     1850   64 72  210/ 10/ 12 1000.4    4/14   3/14
CAPE LOOKOUT     1900   61     140/  7/  8  999.1
BEAUFORT LAB     1900   59 52  120/  6/  7  998.0
30 SE NEW RVR IN 1908   63 64  230/ 14/ 17 1000.0
30 SE NEW RVR IN 1843      64                N/A     3/ 7   2/13
27 SE WRIGHTSVLE 1908   65 67  190/ 12/ 16  999.8
5 SE WRIGHTSVLE  1908   55     280/  4/  8  999.5
225 S CAPE HAT   1850   73 71  190/ 21/ 27 1003.6    8/ 8   2/13
41 SE CHARLESTON 1850   66 68  180/ 10/ 14 1000.6    6/ 7   5/ 7

$$



USA.gov is the U.S. government's official web portal to all federal, state and local government web resources and services.